Weather observations for the past three days for
Whidbey Island Naval Air Station - Ault Field
Imperial (Metric)
Date Time (pdt) Wind (mph) Vis. (mi.) Weather Sky Cond. Temperature (ºF) Relative Humidity Wind Chill (°F) Heat Index (°F) Pressure Precipitation (in)
Air Dwpt 6 hour altimeter (in) sea level (mb) 1 hr 3 hr 6 hr
Max. Min.
21 05:53 SW 10 10.00 Mostly Cloudy FEW002 BKN006 BKN100 54 53.1 97% 30.09 1019.4
21 04:53 SW 9 10.00 Partly Cloudy FEW010 SCT100 55 54 57 54 96% 30.05 1018.0
21 03:53 S 8 10.00 Fair CLR 54 53.1 97% 30.03 1017.3
21 02:53 SW 10 10.00 Fair CLR 55 54 96% 30.03 1017.1
21 01:53 SW 9 10.00 Fair CLR 55.9 55 97% 30.03 1017.3
21 00:53 SW 6 10.00 Fair CLR 55.9 54 93% 30.04 1017.7
20 23:53 SW 6 10.00 Fair CLR 57 54 90% 30.05 1018.0
20 22:53 Calm 10.00 Partly Cloudy SCT100 57 54 62.1 55.9 90% 30.05 1018.0
20 21:53 SW 6 10.00 Partly Cloudy SCT100 55.9 54 93% 30.05 1018.1
20 20:53 SW 6 10.00 Partly Cloudy SCT100 57 54 90% 30.05 1017.8
20 19:53 SW 7 10.00 A Few Clouds FEW100 60.1 55 84% 30.05 1018.0
20 18:53 SW 5 10.00 A Few Clouds FEW100 61 55 81% 30.06 1018.2
20 17:53 W 6 10.00 A Few Clouds FEW030 FEW100 61 55 81% 30.07 1018.5
20 16:53 W 7 10.00 A Few Clouds FEW030 FEW100 61 55 64.9 60.1 81% 30.09 1019.1
20 15:53 W 8 10.00 Fair CLR 63 55 76% 30.11 1019.8
20 14:53 W 8 10.00 Fair CLR 63 55 76% 30.12 1020.4
20 13:53 W 8 10.00 Fair CLR 63 55 76% 30.13 1020.7
20 12:53 W 9 10.00 Fair CLR 63 55 76% 30.15 1021.2
20 11:53 W 7 10.00 A Few Clouds FEW150 62.1 55 78% 30.16 1021.6
20 10:53 W 9 10.00 A Few Clouds FEW150 60.1 54 61 52 80% 30.17 1021.9
20 09:53 W 7 10.00 Fair CLR 60.1 54 80% 30.17 1021.9
20 08:53 SW 9 10.00 A Few Clouds FEW006 59 54 83% 30.17 1021.9
20 07:53 Calm 10.00 A Few Clouds FEW006 59 55.9 90% 30.16 1021.8
20 06:53 S 3 10.00 Mostly Cloudy FEW003 BKN006 55 55 100% 30.16 1021.5
20 05:53 S 5 10.00 Shallow Fog FEW006 SCT010 53.1 52 96% 30.16 1021.5
20 04:53 S 6 10.00 Partly Cloudy FEW010 FEW030 SCT100 54 53.1 57 54 97% 30.16 1021.5
20 03:53 S 6 10.00 Fair CLR 55 54 96% 30.15 1021.4
20 02:53 S 3 10.00 Fair CLR 55 53.1 93% 30.16 1021.6
20 01:53 Vrbl 3 10.00 Fair CLR 55 53.1 93% 30.16 1021.6
20 00:53 SW 6 10.00 Fair CLR 57 54 90% 30.17 1021.8
19 23:53 SW 5 10.00 Fair CLR 57 54 90% 30.16 1021.8
19 22:53 SW 6 10.00 Fair CLR 57 53.1 66 57 87% 30.16 1021.8
19 21:53 SW 3 10.00 A Few Clouds FEW030 57.9 54 87% 30.16 1021.8
19 20:53 SW 3 10.00 A Few Clouds FEW030 FEW220 59 54 83% 30.15 1021.4
19 19:53 SW 5 10.00 A Few Clouds FEW030 FEW220 60.1 55 84% 30.16 1021.5
19 18:53 W 7 10.00 A Few Clouds FEW025 FEW220 61 55 81% 30.16 1021.6
19 17:53 W 8 10.00 A Few Clouds FEW025 FEW220 64 55.9 75% 30.17 1021.8
19 16:53 W 8 10.00 A Few Clouds FEW028 FEW220 66 57 66.9 62.1 73% 30.18 1022.3
19 15:53 W 8 10.00 A Few Clouds FEW030 FEW220 66 55.9 70% 30.2 1022.8
19 14:53 W 8 10.00 A Few Clouds FEW030 FEW220 66 55.9 70% 30.21 1023.2
19 13:53 NW 7 10.00 A Few Clouds FEW033 FEW220 66.9 57 71% 30.21 1023.4
19 12:53 NW 8 10.00 Partly Cloudy FEW035 SCT210 64.9 55.9 73% 30.22 1023.5
19 11:53 W 7 10.00 Partly Cloudy FEW022 FEW035 SCT220 64 55.9 75% 30.21 1023.5
19 10:53 W 6 10.00 Partly Cloudy SCT020 SCT220 62.1 55.9 63 54 80% 30.21 1023.5
19 09:53 W 8 10.00 Partly Cloudy FEW012 SCT020 SCT220 62.1 55.9 80% 30.21 1023.4
19 08:53 SW 10 10.00 Partly Cloudy SCT012 SCT220 61 55.9 84% 30.2 1023.1
19 07:53 SW 7 10.00 Partly Cloudy FEW010 FEW120 SCT220 61 55.9 84% 30.19 1022.8
19 06:53 SE 3 10.00 Partly Cloudy FEW012 FEW120 SCT220 57.9 55 90% 30.18 1022.2
19 05:53 SE 5 10.00 Partly Cloudy FEW100 SCT140 SCT220 55 53.1 93% 30.17 1021.8
19 04:53 SW 3 10.00 A Few Clouds FEW080 55.9 54 57 55.9 93% 30.16 1021.6
19 03:53 SW 5 10.00 A Few Clouds FEW020 57 54 90% 30.15 1021.2
19 02:53 Calm 10.00 A Few Clouds FEW015 57 54 90% 30.13 1020.7
19 01:53 Vrbl 3 10.00 A Few Clouds FEW015 FEW150 57 54 90% 30.13 1020.6
19 00:53 W 3 10.00 A Few Clouds FEW150 57 54 90% 30.13 1020.6
18 23:53 SW 3 10.00 A Few Clouds FEW120 57 54 90% 30.12 1020.2
18 22:53 Calm 10.00 A Few Clouds FEW120 55.9 53.1 64 55.9 90% 30.11 1019.9
18 21:53 Calm 10.00 A Few Clouds FEW100 57.9 53.1 84% 30.09 1019.3
18 20:53 SW 14 10.00 A Few Clouds FEW028 FEW090 59 53.1 81% 30.08 1018.8
18 19:53 SW 12 10.00 A Few Clouds FEW220 60.1 54 80% 30.06 1018.2
18 18:53 SW 13 10.00 A Few Clouds FEW028 FEW220 62.1 54 75% 30.06 1018.3
18 17:53 SW 13 10.00 Partly Cloudy FEW028 FEW045 SCT220 63 54 73% 30.06 1018.2
18 16:53 SW 12 10.00 Partly Cloudy FEW025 FEW045 SCT220 63 55 64.9 62.1 76% 30.06 1018.4
18 15:53 W 9 10.00 Partly Cloudy FEW020 FEW040 SCT220 64 55 73% 30.07 1018.7
18 14:53 W 7 10.00 Partly Cloudy FEW020 FEW040 SCT220 64 55.9 75% 30.08 1019.0
18 13:53 W 8 10.00 Partly Cloudy FEW018 FEW040 SCT220 64 57 78% 30.09 1019.3
18 12:53 W 7 10.00 Partly Cloudy FEW015 FEW040 SCT220 62.1 57 84% 30.09 1019.3
18 11:53 Vrbl 6 10.00 Partly Cloudy FEW018 SCT040 SCT220 64 57 78% 30.09 1019.3
18 10:53 W 8 10.00 Partly Cloudy FEW017 SCT040 SCT210 64 55.9 64.9 57.9 75% 30.09 1019.4
18 09:53 W 5 10.00 Mostly Cloudy FEW009 BKN017 BKN040 BKN210 63 57 81% 30.09 1019.4
18 08:53 W 7 10.00 Overcast FEW010 SCT013 OVC016 61 57 87% 30.1 1019.5
18 07:53 SW 7 10.00 Mostly Cloudy FEW009 BKN017 BKN035 BKN210 60.1 57 90% 30.09 1019.3
18 06:53 SW 5 10.00 Mostly Cloudy FEW009 BKN015 BKN035 BKN210 59 55.9 90% 30.08 1019.1
Date Time (pdt) Wind (mph) Vis. (mi.) Weather Sky Cond. Air Dwpt Max. Min. Relative Humidity Wind Chill (°F) Heat Index (°F) altimeter (in) sea level (mb) 1 hr 3 hr 6 hr
6 hour
Temperature (ºF) Pressure Precipitation (in)